[[{"header":{"parameterUnit":"m.s-1","parameterCategory":1,"la1":30.2991,"la2":30.254,"lo1":-89.0895,"lo2":-89.0444,"dy":0.0017,"dx":0.0017,"nx":28,"ny":28,"refTime":"2025-04-07T09:00:00:Z","depth":0,"parameterNumber":2,"parameterNumberName":"U-component_of_WINDS"},"data":[0,0,0,0,0,0,0,0,0,0,0,0,0,0,0,0,0,0,0,0,0,0,0,0,0,0,0,0,0,0,0,0,0,0,0,0,0,0,0,0,0,0,0,0,0,0,0,0,0,0,0,0,0,0,0,0,0,0,2.8314,2.8314,0,2.831,2.831,2.831,2.8258,2.8257,2.8256,2.8254,2.8252,2.8253,2.8254,0,0,0,0,0,0,0,0,0,0,0,0,0,2.8281,2.8282,2.8314,2.8314,2.8314,2.831,2.831,2.831,2.8259,2.8257,2.8255,2.8254,2.8252,2.8253,2.8255,0,0,0,0,0,0,0,0,0,0,0,0,0,2.8288,2.8282,2.8314,2.8288,2.8286,2.831,2.831,2.831,2.8259,2.8257,2.8255,2.8253,2.8251,2.8253,2.8255,2.8305,0,0,2.826,2.8261,0,0,0,0,0,0,0,0,2.8288,2.8289,2.8292,2.829,2.8287,2.8283,2.8297,2.8308,2.8259,2.8269,2.8254,2.8252,2.8264,2.8265,2.8268,2.8304,2.8304,2.826,2.8261,2.8262,2.8262,0,0,0,0,0,0,0,2.8287,2.8289,2.8312,2.8292,2.8289,2.8277,2.8276,2.8299,2.8278,2.8268,2.8264,2.8264,2.8262,2.8267,2.8268,2.8304,2.826,2.8262,2.8263,2.8263,2.8384,2.8386,0,0,0,0,0,0,2.829,2.8289,2.8313,2.8312,2.8283,2.828,2.8278,2.8286,2.8277,2.8274,2.8266,2.8262,2.8265,2.8266,2.8267,2.8326,2.8262,2.8264,2.8265,2.8382,2.8384,2.8387,0,0,0,0,0,0,2.829,2.8293,2.8313,2.83,2.8301,2.8282,2.8291,2.8287,2.8291,2.8276,2.8272,2.8274,2.8263,2.8265,2.8296,2.8325,2.8264,2.8266,2.8379,2.8382,2.8385,2.8444,0,0,0,0,0,0,2.8289,2.8293,2.8311,2.8301,2.8302,2.8341,2.8293,2.8288,2.8294,2.8289,2.8282,2.8279,2.8262,2.8294,2.8298,2.8327,2.8267,2.8376,2.8381,2.8384,2.8439,2.8449,2.8457,0,0,0,0,0,2.8288,2.8327,2.8312,2.8315,2.8324,2.8342,2.8343,2.8322,2.8297,2.8315,2.8306,2.8279,2.8322,2.8297,2.8301,2.8331,2.8374,2.8379,2.8384,2.8435,2.8447,2.8456,0,0,0,0,0,0,2.8341,2.8325,2.8308,2.8345,2.8345,2.8333,2.8356,2.8334,2.8342,2.8337,2.8311,2.831,2.8345,2.8341,2.8315,2.838,2.8344,2.835,2.8381,2.8392,2.8401,2.8401,2.8269,0,0,0,0,0,2.8357,2.8372,2.8358,2.8392,2.8393,2.8375,2.8382,2.8365,2.8365,2.8365,2.8358,2.8359,2.8373,2.8382,2.8394,2.8439,2.8437,2.8462,2.847,2.8478,2.8483,2.8508,2.8519,2.8402,2.8402,2.8402,0,0,2.839,2.8384,2.8395,2.8403,2.8401,2.8419,2.8375,2.8395,2.8408,2.8368,2.8397,2.8392,2.8392,2.8431,2.8448,2.8429,2.8515,2.8484,2.849,2.8491,2.8514,2.8525,2.8535,2.8406,2.8405,2.8405,0,0,2.8459,2.8456,2.8484,2.8484,2.8482,2.847,2.8477,2.8469,2.8464,2.8493,2.8464,2.848,2.8504,2.8505,2.8509,2.8583,2.8559,2.8587,2.8633,2.8658,2.8667,2.8675,2.8702,2.8712,2.8593,2.8593,2.8593,0,2.8501,2.8525,2.8502,2.8524,2.8529,2.8494,2.8524,2.8525,2.8528,2.8533,2.8512,2.8542,2.8539,2.8579,2.8597,2.8601,2.8609,2.8587,2.8667,2.8675,2.8682,2.8708,2.8718,2.8596,2.8596,2.8595,2.8595,0,2.8577,2.8595,2.8618,2.8622,2.8629,2.8656,2.8637,2.8648,2.8632,2.8623,2.8654,2.865,2.8661,2.8669,2.8653,2.8707,2.8696,2.8672,2.8634,2.8697,2.8721,2.873,2.8601,2.86,2.8599,2.8598,0,0,2.8678,2.8669,2.8678,2.868,2.8677,2.8691,2.8716,2.8727,2.8738,2.8741,2.8763,2.8785,2.8763,2.8768,2.8753,2.8775,2.8834,2.8748,2.8747,2.8764,2.8895,2.8913,2.8924,2.882,2.8821,2.8823,2.8895,0,2.8745,2.8786,2.8767,2.8812,2.8829,2.8797,2.882,2.8821,2.8814,2.8828,2.8821,2.8837,2.8807,2.881,2.883,2.8823,2.886,2.8817,2.884,2.8841,2.8841,2.8937,2.8955,2.9023,2.8904,2.8906,2.8907,0,2.8828,2.8835,2.8882,2.8877,2.8884,2.8904,2.8913,2.8927,2.8929,2.8923,2.8929,2.8909,2.8936,2.89,2.8937,2.8908,2.8917,2.8915,2.8917,2.8918,2.8877,2.894,2.9045,2.9055,2.8921,2.892,2.8919,0,2.8898,2.8919,2.895,2.8953,2.8948,2.8964,2.8963,2.8962,2.8971,2.898,2.8985,2.8997,2.9004,2.9014,2.8999,2.8974,2.9039,2.9001,2.9035,2.9036,2.9049,2.9049,2.9157,2.9056,2.9055,2.9055,2.9055,0,2.8974,2.9004,2.8981,2.9,2.9034,2.9012,2.9046,2.9042,2.9043,2.9061,2.9035,2.9054,2.9033,2.905,2.9038,2.9071,2.9075,2.9071,2.9067,2.9073,2.9074,2.9078,2.9073,2.9058,2.9057,2.9057,2.9056,0,2.9057,2.9043,2.9074,2.9068,2.9067,2.9092,2.9087,2.9106,2.9097,2.9122,2.9126,2.9114,2.9133,2.9119,2.9137,2.913,2.9174,2.9164,2.9173,2.917,2.9205,2.9202,2.932,2.9334,2.9224,2.9225,2.9226,0,2.9106,2.9129,2.9125,2.9136,2.9136,2.9153,2.9162,2.9143,2.9154,2.9159,2.9177,2.9194,2.9206,2.9238,2.9231,2.9246,2.9236,2.9277,2.9238,2.9244,2.9237,2.9236,2.9239,2.9284,2.9285,2.9286,2.9287,0,2.9196,2.9189,2.9202,2.9213,2.9225,2.9233,2.9239,2.9249,2.923,2.9244,2.9263,2.9272,2.9292,2.9309,2.9322,2.9323,2.9303,2.93,2.9308,2.9314,2.9319,2.9317,2.9194,2.9297,2.9296,2.9295,2.9295,2.9294,2.9264,2.9283,2.9284,2.93,2.9303,2.931,2.9327,2.9322,2.9337,2.9351,2.9339,2.9362,2.9366,2.9381,2.9385,2.9403,2.9387,2.94,2.9403,2.9406,2.9411,2.9316,2.9406,2.9405,2.9405,2.9405,2.9405,0,2.9353,2.9353,2.9368,2.9377,2.9391,2.9371,2.9377,2.939,2.941,2.9415,2.9428,2.9451,2.9469,2.9464,2.948,2.9497,2.9488,2.9501,2.95,2.9501,2.9425,2.9416,2.9508,2.9508,2.9508,2.9508,2.9508,2.9508,2.9401,2.9432,2.9425,2.9459,2.9458,2.948,2.9486,2.9493,2.9497,2.9523,2.9538,2.9535,2.9537,2.9553,2.9569,2.9567,2.9575,2.9592,2.9587,2.9516,2.9506,2.9496,2.9487,2.9594,2.9594,2.9661,2.9662,2.9663]},{"header":{"parameterUnit":"m.s-1","parameterCategory":1,"la1":30.2991,"la2":30.254,"lo1":-89.0895,"lo2":-89.0444,"dy":0.0017,"dx":0.0017,"nx":28,"ny":28,"refTime":"2025-04-07T09:00:00:Z","depth":0,"parameterNumber":3,"parameterNumberName":"V-component_of_WINDS"},"data":[0,0,0,0,0,0,0,0,0,0,0,0,0,0,0,0,0,0,0,0,0,0,0,0,0,0,0,0,0,0,0,0,0,0,0,0,0,0,0,0,0,0,0,0,0,0,0,0,0,0,0,0,0,0,0,0,0,0,-6.2496,-6.2496,0,-6.2487,-6.2487,-6.2487,-6.2391,-6.2389,-6.2386,-6.2384,-6.2376,-6.2378,-6.238,0,0,0,0,0,0,0,0,0,0,0,0,0,-6.2432,-6.2433,-6.2496,-6.2496,-6.2496,-6.2487,-6.2487,-6.2487,-6.2391,-6.2389,-6.2386,-6.2383,-6.2375,-6.2377,-6.238,0,0,0,0,0,0,0,0,0,0,0,0,0,-6.2445,-6.2434,-6.2496,-6.2447,-6.2443,-6.2487,-6.2487,-6.2487,-6.2392,-6.2388,-6.2385,-6.2382,-6.2374,-6.2377,-6.238,-6.2471,0,0,-6.2389,-6.2391,0,0,0,0,0,0,0,0,-6.2444,-6.2447,-6.2455,-6.2451,-6.2446,-6.2436,-6.2461,-6.2481,-6.2393,-6.2411,-6.2384,-6.238,-6.2399,-6.24,-6.2406,-6.2471,-6.247,-6.239,-6.2392,-6.2393,-6.2394,0,0,0,0,0,0,0,-6.2444,-6.2447,-6.2493,-6.2455,-6.245,-6.2426,-6.2424,-6.2464,-6.2426,-6.241,-6.2403,-6.2403,-6.2396,-6.2403,-6.2405,-6.247,-6.239,-6.2392,-6.2394,-6.2395,-6.2607,-6.2611,0,0,0,0,0,0,-6.2449,-6.2447,-6.2493,-6.2492,-6.2436,-6.243,-6.2428,-6.2443,-6.2425,-6.2419,-6.2406,-6.2398,-6.24,-6.2402,-6.2404,-6.2508,-6.2393,-6.2396,-6.2397,-6.2604,-6.2608,-6.2612,0,0,0,0,0,0,-6.2448,-6.2454,-6.2493,-6.2468,-6.2471,-6.2435,-6.2453,-6.2445,-6.2452,-6.2422,-6.2415,-6.242,-6.2397,-6.24,-6.2455,-6.2506,-6.2397,-6.24,-6.2599,-6.2605,-6.261,-6.2717,0,0,0,0,0,0,-6.2447,-6.2455,-6.2489,-6.2469,-6.2473,-6.2544,-6.2456,-6.2447,-6.2457,-6.2447,-6.2434,-6.2428,-6.2394,-6.2451,-6.2458,-6.2509,-6.2402,-6.2594,-6.2602,-6.2608,-6.2709,-6.2726,-6.2741,0,0,0,0,0,-6.2445,-6.252,-6.2491,-6.2497,-6.2514,-6.2547,-6.2549,-6.2509,-6.2462,-6.2496,-6.2476,-6.2428,-6.25,-6.2457,-6.2464,-6.2517,-6.2591,-6.26,-6.2608,-6.2702,-6.2723,-6.274,0,0,0,0,0,0,-6.2547,-6.2516,-6.2484,-6.2555,-6.2554,-6.2531,-6.2572,-6.2532,-6.2545,-6.2535,-6.2485,-6.2483,-6.2545,-6.2536,-6.2489,-6.2603,-6.2537,-6.2548,-6.2606,-6.2626,-6.2641,-6.2641,-6.2405,0,0,0,0,0,-6.2577,-6.2606,-6.2578,-6.2643,-6.2644,-6.2609,-6.2621,-6.259,-6.2588,-6.2587,-6.2572,-6.2572,-6.2593,-6.2609,-6.2628,-6.2708,-6.2703,-6.2748,-6.2763,-6.2777,-6.2786,-6.2826,-6.2845,-6.2641,-6.264,-6.264,0,0,-6.2641,-6.2628,-6.2649,-6.2663,-6.2659,-6.269,-6.2609,-6.2646,-6.2668,-6.2593,-6.2643,-6.2632,-6.2628,-6.2695,-6.2724,-6.269,-6.2841,-6.2787,-6.2798,-6.28,-6.2837,-6.2856,-6.2874,-6.2646,-6.2645,-6.2644,0,0,-6.2772,-6.2766,-6.2818,-6.2816,-6.281,-6.2786,-6.2799,-6.2781,-6.2771,-6.282,-6.2764,-6.2791,-6.283,-6.2829,-6.2834,-6.2965,-6.2921,-6.2973,-6.3055,-6.3095,-6.3111,-6.3125,-6.317,-6.3188,-6.2982,-6.2983,-6.2983,0,-6.2852,-6.2895,-6.2851,-6.289,-6.2898,-6.2831,-6.2884,-6.2884,-6.2885,-6.2892,-6.2854,-6.2901,-6.2895,-6.296,-6.2992,-6.2999,-6.3011,-6.2974,-6.3112,-6.3126,-6.3138,-6.3181,-6.3198,-6.2989,-6.2988,-6.2988,-6.2987,0,-6.2993,-6.3025,-6.3068,-6.307,-6.3082,-6.3129,-6.3091,-6.3109,-6.3077,-6.3057,-6.3108,-6.3097,-6.3112,-6.3125,-6.3095,-6.3187,-6.3165,-6.3121,-6.3053,-6.3165,-6.3204,-6.322,-6.2998,-6.2996,-6.2994,-6.2992,0,0,-6.3188,-6.3164,-6.3181,-6.318,-6.3169,-6.3192,-6.3236,-6.3249,-6.3266,-6.3269,-6.3303,-6.3338,-6.3297,-6.3302,-6.3271,-6.3307,-6.3409,-6.3257,-6.3256,-6.3285,-6.3508,-6.3541,-6.3561,-6.3381,-6.3384,-6.3386,-6.3508,0,-6.3313,-6.3385,-6.3345,-6.3422,-6.345,-6.3387,-6.3424,-6.3421,-6.3404,-6.3425,-6.3405,-6.343,-6.3374,-6.3377,-6.3409,-6.339,-6.3453,-6.3381,-6.3412,-6.3413,-6.3413,-6.3582,-6.3616,-6.3732,-6.3524,-6.3526,-6.3528,0,-6.3469,-6.3478,-6.3557,-6.3539,-6.355,-6.3584,-6.3593,-6.3614,-6.361,-6.3594,-6.3601,-6.3561,-6.3602,-6.3536,-6.3591,-6.3543,-6.3553,-6.3546,-6.3549,-6.355,-6.3477,-6.3585,-6.3768,-6.3786,-6.3552,-6.355,-6.3548,0,-6.3602,-6.3633,-6.3684,-6.3686,-6.3667,-6.3693,-6.3686,-6.3678,-6.3689,-6.3697,-6.3703,-6.3717,-6.3724,-6.3736,-6.3701,-6.3656,-6.3761,-6.3692,-6.3749,-6.375,-6.3772,-6.3771,-6.3959,-6.3782,-6.3782,-6.3781,-6.3781,0,-6.3745,-6.3796,-6.3743,-6.3775,-6.383,-6.3784,-6.384,-6.3827,-6.382,-6.3848,-6.3795,-6.3822,-6.3774,-6.3797,-6.377,-6.3819,-6.3824,-6.3812,-6.3804,-6.3816,-6.3817,-6.3821,-6.3812,-6.3786,-6.3785,-6.3784,-6.3783,0,-6.3902,-6.3869,-6.392,-6.3898,-6.3893,-6.3935,-6.3916,-6.3944,-6.3922,-6.3958,-6.3964,-6.3931,-6.3954,-6.392,-6.3941,-6.3923,-6.399,-6.3971,-6.3992,-6.3985,-6.4043,-6.4038,-6.4239,-6.4262,-6.4072,-6.4074,-6.4075,0,-6.3995,-6.4032,-6.4013,-6.4028,-6.4024,-6.4048,-6.4058,-6.4015,-6.4028,-6.4025,-6.4053,-6.4072,-6.4085,-6.4126,-6.4104,-6.4119,-6.4099,-6.4168,-6.4101,-6.4112,-6.4098,-6.4096,-6.4099,-6.4182,-6.4184,-6.4186,-6.4188,0,-6.4163,-6.4145,-6.4161,-6.4172,-6.4185,-6.4192,-6.4194,-6.4209,-6.4164,-6.4181,-6.4204,-6.4214,-6.4234,-6.4254,-6.4263,-6.4257,-6.4215,-6.4209,-6.4223,-6.4235,-6.4245,-6.4239,-6.4028,-6.4204,-6.4203,-6.4202,-6.4201,-6.42,-6.429,-6.4319,-6.431,-6.433,-6.4327,-6.4331,-6.4356,-6.4337,-6.4355,-6.4367,-6.4341,-6.4371,-6.4365,-6.4373,-6.4371,-6.4393,-6.4363,-6.4383,-6.4388,-6.4394,-6.4402,-6.4242,-6.4395,-6.4395,-6.4394,-6.4394,-6.4393,0,-6.4454,-6.4445,-6.4463,-6.4468,-6.4484,-6.4442,-6.4443,-6.4459,-6.4485,-6.4482,-6.4496,-6.4522,-6.454,-6.452,-6.4534,-6.4556,-6.4538,-6.4562,-6.4559,-6.4558,-6.4429,-6.4415,-6.4577,-6.4576,-6.4576,-6.4576,-6.4576,-6.4576,-6.4541,-6.4589,-6.4569,-6.4615,-6.4605,-6.4632,-6.4636,-6.4639,-6.4637,-6.4668,-6.4683,-6.4669,-6.4659,-6.4672,-6.4687,-6.4681,-6.4688,-6.4719,-6.4706,-6.4585,-6.4567,-6.455,-6.4536,-6.4721,-6.4721,-6.4832,-6.4833,-6.4834]}]]